Sydney, Australia

8:09 AM AEDT en Diciembre 12, 2017 (GMT +1100)
Kingsford Smith International

Tiempo Historia de YSSY - Diciembre, 2017

Change the Weather History Date:

Jueves, Diciembre 7, 2017

  Actual Average Record
Temperature  
Temperatura media 75 ° F -  
Temperatura máxima 88 ° F 79 ° F 104 ° F (2005)
Temperatura mínima 62 ° F 64 ° F 53 ° F (2011)
Cooling Degree Days 10    
Growing Degree Days 25 (Base 50)    
Moisture  
Punto de rocío 50 ° F    
Average Humidity 38    
Maximum Humidity 73    
Minimum Humidity 11    
Precipitación  
Precipitación 0.00 pul 0.12 pul - ()
Presión al nivel del mar  
Presión al nivel del mar 29.67 pul    
Viento  
Velocidad del viento 11 mph ()    
Velocidad máxima del viento 25 mph    
Max Gust Speed 36 mph    
Visibilidad 19.0 Millas    
Eventos      
Averages and records for this station are not official NWS values.
T = Trace of Precipitation, MM = Missing Value Source: Averaged Metar Reports

Daily Weather History Graph

Daily Weather History Graph

Search for Another Location

Airport or City:

Trip Planner

Search our weather history database for the weather conditions in past years. The results will help you decide how hot, cold, wet, or windy it might be!

Date:

Astronomía

Dec. 07, 2017 Salida Puesta
Hora real 5:36 AM AEDT 7:56 PM AEDT
Crepúsculo civil 5:08 AM AEDT 8:25 PM AEDT
Crepúsculo náutico 4:32 AM AEDT 9:00 PM AEDT
Crepúsculo astronómico 3:54 AM AEDT 9:39 PM AEDT
Luna 11:24 PM AEDT (12/7) 9:08 AM AEDT (12/7)
Horas de luz 15h 17m
Horas de luz
14h 19m
Gibosa menguante, 84% of the Moon is Illuminated
Dic 7
Gibosa menguante
Dic 10
Cuarto menguante
Dic 18
Nueva
Dic 26
Cuarto creciente
Ene 2
Luna llena

Hourly Weather History & Observations

Hora (AEDT) Temp. Índice de calor Punto de rocío Humedad Presión Visibilidad Wind Dir Velocidad del viento Velocidad de ráfagas Precip Eventos Condiciones
12:00 AM 71 ° F - 54 ° F 44% 29.68 pul 19 mi NNO 11.5 mph - -   Parcialmente nublado
12:00 AM 71.6 ° F - 53.6 ° F 53% 29.68 pul - NNO 11.5 mph - N/A   Despejado
12:30 AM 69.8 ° F - 53.6 ° F 56% 29.68 pul - Norte 9.2 mph - N/A   Despejado
1:00 AM 69 ° F - 54 ° F 49% 29.68 pul - Norte 8.1 mph - -  
1:00 AM 69.8 ° F - 53.6 ° F 56% 29.65 pul - Norte 8.1 mph - N/A   Despejado
1:30 AM 68.0 ° F - 55.4 ° F 64% 29.65 pul - Norte 10.4 mph - N/A   Despejado
2:00 AM 68 ° F - 56 ° F 55% 29.68 pul - Norte 9.2 mph - -  
2:00 AM 68.0 ° F - 55.4 ° F 64% 29.65 pul - Norte 9.2 mph - N/A   Despejado
2:30 AM 66.2 ° F - 55.4 ° F 68% 29.65 pul - Norte 9.2 mph - N/A   Despejado
3:00 AM 67 ° F - 56 ° F 58% 29.67 pul 19 mi Norte 9.2 mph - -   Parcialmente nublado
3:00 AM 68.0 ° F - 55.4 ° F 64% 29.65 pul - Norte 9.2 mph - N/A   Despejado
3:30 AM 68.0 ° F - 55.4 ° F 64% 29.65 pul - NNO 10.4 mph - N/A   Despejado
4:00 AM 68 ° F - 56 ° F 55% 29.67 pul - NNO 10.4 mph - -  
4:00 AM 68.0 ° F - 55.4 ° F 64% 29.65 pul - NNO 10.4 mph - N/A   Despejado
5:00 AM 66 ° F - 56 ° F 62% 29.68 pul - Norte 6.9 mph - -  
5:00 AM 66.2 ° F - 55.4 ° F 68% 29.65 pul - Norte 6.9 mph - N/A   Despejado
5:30 AM 66.2 ° F - 55.4 ° F 68% 29.68 pul - NO 1.2 mph - N/A   Despejado
6:00 AM 66 ° F - 56 ° F 61% 29.69 pul 25 mi Norte 1.2 mph - -   Parcialmente nublado
6:00 AM 66.2 ° F - 55.4 ° F 68% 29.68 pul - Norte 1.2 mph - N/A   Despejado
6:30 AM 66.2 ° F - 57.2 ° F 73% 29.68 pul - ONO 5.8 mph - N/A   Despejado
7:00 AM 71 ° F - 56 ° F 49% 29.71 pul - NO 6.9 mph - -  
7:00 AM 69.8 ° F - 55.4 ° F 60% 29.71 pul - NO 6.9 mph - N/A   Despejado
7:30 AM 71.6 ° F - 55.4 ° F 57% 29.71 pul - NO 10.4 mph - N/A   Despejado
8:00 AM 73 ° F - 56 ° F 44% 29.72 pul - NO 10.4 mph - -  
8:00 AM 73.4 ° F - 55.4 ° F 53% 29.71 pul - NO 10.4 mph - N/A   Despejado
8:30 AM 77.0 ° F - 55.4 ° F 47% 29.71 pul - NO 8.1 mph - N/A   Despejado
9:00 AM 78 ° F - 54 ° F 33% 29.72 pul 25 mi NO 10.4 mph - -   Parcialmente nublado
9:00 AM 78.8 ° F - 53.6 ° F 42% 29.71 pul - NO 10.4 mph - N/A   Despejado
9:30 AM 80.6 ° F - 51.8 ° F 37% 29.71 pul - NO 11.5 mph - N/A   Despejado
10:00 AM 81 ° F - 50 ° F 24% 29.71 pul - NO 10.4 mph - -  
10:00 AM 80.6 ° F - 50.0 ° F 34% 29.71 pul - NO 10.4 mph - N/A   Despejado
10:30 AM 86.0 ° F - 48.2 ° F 27% 29.68 pul - NO 9.2 mph - N/A   Despejado
11:00 AM 86 ° F - 45 ° F 15% 29.70 pul - NO 9.2 mph - -  
11:00 AM 86.0 ° F - 44.6 ° F 23% 29.68 pul - NO 9.2 mph - N/A   Despejado
11:30 AM 86.0 ° F - 41.0 ° F 20% 29.68 pul - NO 9.2 mph - N/A   Despejado
12:00 PM 86 ° F - 43 ° F 13% 29.69 pul 25 mi Oeste 17.3 mph - -   Parcialmente nublado
12:00 PM 86.0 ° F - 42.8 ° F 22% 29.68 pul - Oeste 17.3 mph - N/A   Despejado
12:30 PM 86.0 ° F - 42.8 ° F 22% 29.68 pul - NO 6.9 mph - N/A   Despejado
1:00 PM 87 ° F - 41 ° F 11% 29.68 pul - Oeste 6.9 mph - -  
1:00 PM 87.8 ° F - 41.0 ° F 19% 29.68 pul - Oeste 6.9 mph - N/A   Despejado
1:30 PM 86.0 ° F - 39.2 ° F 19% 29.65 pul - NNO 6.9 mph - N/A   Despejado
2:00 PM 88 ° F - 41 ° F 11% 29.66 pul - ENE 15.0 mph - -  
2:00 PM 87.8 ° F - 41.0 ° F 19% 29.65 pul - ENE 15.0 mph - N/A   Despejado
2:30 PM 86.0 ° F - 48.2 ° F 27% 29.65 pul - Este 18.4 mph - N/A   Despejado
3:00 PM 85 ° F - 45 ° F 16% 29.65 pul 25 mi ENE 17.3 mph - -   Parcialmente nublado
3:00 PM 86.0 ° F - 44.6 ° F 23% 29.65 pul - ENE 17.3 mph - N/A   Despejado
3:30 PM 87.8 ° F - 46.4 ° F 24% 29.62 pul - ENE 20.7 mph - N/A   Despejado
4:00 PM 85 ° F - 46 ° F 16% 29.65 pul - ENE 19.6 mph - -  
4:00 PM 86.0 ° F - 46.4 ° F 25% 29.62 pul - ENE 19.6 mph - N/A   Despejado
4:30 PM 84.2 ° F - 46.4 ° F 27% 29.62 pul - NE 21.9 mph - N/A   Despejado
5:00 PM 85 ° F - 50 ° F 20% 29.64 pul - NE 19.6 mph - -  
5:00 PM 84.2 ° F - 50.0 ° F 30% 29.62 pul - NE 19.6 mph - N/A   Despejado
5:30 PM 82.4 ° F 81.7 ° F 55.4 ° F 39% 29.62 pul - NE 21.9 mph - N/A   Despejado
6:00 PM 81 ° F - 54 ° F 29% 29.65 pul 25 mi NE 21.9 mph - -   Parcialmente nublado
6:00 PM 80.6 ° F 80.5 ° F 55.4 ° F 42% 29.65 pul - NE 21.9 mph - N/A   Despejado
6:30 PM 82.4 ° F - 51.8 ° F 35% 29.65 pul - NE 24.2 mph - N/A   Despejado
7:00 PM 80 ° F - 50 ° F 25% 29.66 pul - NE 25.3 mph - -  
7:00 PM 80.6 ° F - 50.0 ° F 34% 29.65 pul - NE 25.3 mph - N/A   Despejado
7:16 PM 80.6 ° F - 48.2 ° F 32% 29.65 pul - NE 24.2 mph 35.7 mph N/A   Despejado
7:30 PM 80.6 ° F - 48.2 ° F 32% 29.65 pul - NE 25.3 mph - N/A   Despejado
8:00 PM 80 ° F - 47 ° F 21% 29.68 pul - NNE 24.2 mph - -  
8:00 PM 80.6 ° F - 48.2 ° F 32% 29.65 pul - NNE 24.2 mph - N/A   Despejado
9:00 PM 79 ° F - 45 ° F 20% 29.68 pul 25 mi NNE 19.6 mph - -   Parcialmente nublado
9:00 PM 78.8 ° F - 44.6 ° F 30% 29.68 pul - NNE 19.6 mph - N/A   Despejado
9:30 PM 78.8 ° F - 42.8 ° F 28% 29.68 pul - NNE 18.4 mph - N/A   Despejado
10:00 PM 80 ° F - 46 ° F 19% 29.69 pul - NNE 19.6 mph - -  
10:00 PM 80.6 ° F - 46.4 ° F 30% 29.68 pul - NNE 19.6 mph - N/A   Despejado
10:30 PM 78.8 ° F - 50.0 ° F 36% 29.68 pul - NNE 20.7 mph - N/A   Despejado
11:00 PM 78 ° F - 51 ° F 29% 29.68 pul - NNE 18.4 mph - -  
11:00 PM 77.0 ° F - 51.8 ° F 41% 29.68 pul - NNE 18.4 mph - N/A   Despejado